Weather History for PAMR - January, 2013

Change the Weather History Date:

Thursday, January 17, 2013

  Actual Average Record
Temperature  
Mean Temperature 18 °F -  
Max Temperature 21 °F 21 °F 48 °F (2014)
Min Temperature 16 °F 9 °F -20 °F (2004)
Degree Days  
Heating Degree Days 46    
Moisture  
Dew Point 13 °F    
Average Humidity 80    
Maximum Humidity 93    
Minimum Humidity 52    
Precipitation  
Precipitation 0.07 in - - ()
Snow  
Snow 0.00 in - - ()
Snow Depth 4.00 in    
Sea Level Pressure  
Sea Level Pressure 29.71 in    
Wind  
Wind Speed 3 mph (NNE)    
Max Wind Speed 7 mph    
Max Gust Speed -    
Visibility 5 miles    
Events Snow    
Averages and records for this station are not official NWS values.
T = Trace of Precipitation, MM = Missing Value Source: NWS Daily Summary

Daily Weather History Graph

Daily Weather History Graph

Search for Another Location

Airport or City:

Trip Planner

Search our weather history database for the weather conditions in past years. The results will help you decide how hot, cold, wet, or windy it might be!

Date:

Astronomy

Jan. 17, 2013 Rise Set
Actual Time 9:52 AM AKST 4:27 PM AKST
Civil Twilight 8:57 AM AKST 5:22 PM AKST
Nautical Twilight 8:01 AM AKST 6:18 PM AKST
Astronomical Twilight 7:09 AM AKST 7:10 PM AKST
Moon 10:54 AM AKST (1/17) 12:30 AM AKST (1/17)
Length of Visible Light 8h 25m
Length of Day
6h 35m
Waxing Crescent, 39% of the Moon is Illuminated
Jan 17
Waxing Crescent
Jan 18
First Quarter
Jan 26
Full
Feb 3
Last Quarter
Feb 9
New

Hourly Weather History & Observations

Time (AKST) Temp. Windchill Dew Point Humidity Pressure Visibility Wind Dir Wind Speed Gust Speed Precip Events Conditions
12:20 AM 21.2 °F 16.4 °F 19.4 °F 93% 29.67 in 2.0 mi West 3.5 mph - 0.00 in Snow Light Snow
12:53 AM 21.0 °F 16.2 °F 19.0 °F 92% 29.67 in 2.5 mi NW 3.5 mph - 0.00 in Snow Light Snow
1:15 AM 21.2 °F - 19.4 °F 93% 29.66 in 4.0 mi Calm Calm - 0.01 in Snow Light Snow
1:53 AM 21.0 °F - 19.0 °F 92% 29.66 in 4.0 mi Calm Calm - 0.01 in Snow Light Snow
3:48 AM 19.4 °F 14.3 °F 17.6 °F 93% 29.63 in 5.0 mi NE 3.5 mph - 0.00 in Snow Light Snow
3:53 AM 19.9 °F 13.4 °F 18.0 °F 92% 29.64 in 5.0 mi NE 4.6 mph - 0.00 in Snow Light Snow
4:53 AM 19.9 °F 13.4 °F 17.1 °F 89% 29.61 in 4.0 mi NE 4.6 mph - 0.00 in Snow Light Snow
5:53 AM 19.9 °F 13.4 °F 17.1 °F 89% 29.61 in 3.0 mi ENE 4.6 mph - 0.00 in Snow Light Snow
6:29 AM 19.4 °F 14.3 °F 17.6 °F 93% 29.60 in 2.0 mi NE 3.5 mph - 0.01 in Snow Light Snow
6:53 AM 19.9 °F 14.9 °F 17.1 °F 89% 29.61 in 2.0 mi NNE 3.5 mph - 0.01 in Snow Light Snow
7:33 AM 19.4 °F 14.3 °F 17.6 °F 93% 29.60 in 1.5 mi ENE 3.5 mph - 0.00 in Snow Light Snow
7:41 AM 19.4 °F - 17.6 °F 93% 29.60 in 0.8 mi Calm Calm - 0.00 in Snow Light Snow
7:48 AM 19.4 °F - 17.6 °F 93% 29.60 in 0.8 mi Calm Calm - 0.01 in Snow Light Snow
7:53 AM 19.0 °F - 17.1 °F 92% 29.61 in 0.8 mi Calm Calm - 0.01 in Snow Light Snow
8:53 AM 19.0 °F - 16.0 °F 88% 29.63 in 0.8 mi Calm Calm - 0.01 in Snow Light Snow
9:53 AM 19.0 °F 12.3 °F 16.0 °F 88% 29.64 in 0.8 mi Variable 4.6 mph - 0.02 in Snow Light Snow
10:53 AM 19.0 °F 13.9 °F 15.1 °F 85% 29.65 in 0.8 mi NNE 3.5 mph - 0.00 in Snow Light Snow
11:00 AM 17.6 °F 12.3 °F 15.8 °F 93% 29.64 in 1.5 mi NE 3.5 mph - 0.00 in Snow Light Snow
11:33 AM 19.4 °F - 15.8 °F 86% 29.65 in 4.0 mi Calm Calm - 0.00 in Snow Light Snow
11:53 AM 19.0 °F - 15.1 °F 85% 29.67 in 1.0 mi Calm Calm - 0.00 in Snow Light Snow
12:53 PM 18.0 °F 12.7 °F 14.0 °F 84% 29.68 in 1.0 mi NE 3.5 mph - 0.00 in Snow Light Snow
1:53 PM 18.0 °F - 15.1 °F 88% 29.71 in 1.5 mi Calm Calm - 0.01 in Snow Light Snow
2:53 PM 18.0 °F 8.7 °F 14.0 °F 84% 29.73 in 1.5 mi East 6.9 mph - 0.00 in Snow Light Snow
2:56 PM 17.6 °F 10.7 °F 14.0 °F 86% 29.72 in 3.0 mi ENE 4.6 mph - 0.00 in Snow Light Snow
3:53 PM 18.0 °F 12.7 °F 12.0 °F 78% 29.75 in 10.0 mi ENE 3.5 mph - 0.00 in   Overcast
4:53 PM 19.0 °F - 10.0 °F 68% 29.79 in 10.0 mi Calm Calm - N/A   Overcast
5:49 PM 19.4 °F - 5.0 °F 54% 29.80 in 10.0 mi Calm Calm - N/A   Overcast
5:53 PM 19.0 °F - 5.0 °F 54% 29.81 in 10.0 mi Calm Calm - N/A   Overcast
6:53 PM 19.0 °F - 5.0 °F 54% 29.83 in 10.0 mi Calm Calm - N/A   Overcast
7:00 PM 19.4 °F 14.3 °F 5.0 °F 54% 29.83 in 10.0 mi NNE 3.5 mph - N/A   Overcast
7:53 PM 18.0 °F - 5.0 °F 57% 29.86 in 10.0 mi Calm Calm - N/A   Mostly Cloudy
8:53 PM 18.0 °F 12.7 °F 3.0 °F 52% 29.86 in 10.0 mi NNW 3.5 mph - N/A   Overcast
9:53 PM 17.1 °F 8.7 °F 3.0 °F 54% 29.89 in 10.0 mi NNW 5.8 mph - N/A   Overcast
10:53 PM 16.0 °F - 3.9 °F 59% 29.93 in 10.0 mi Calm Calm - N/A   Overcast
11:53 PM 16.0 °F 10.4 °F 3.9 °F 59% 29.96 in 10.0 mi North 3.5 mph - N/A   Overcast